| time (UTC) | temp C | wind direction | speed KPH | gust KPH | rain 1hr cm | rain 24hr cm | rain mn cm | humidity % | barometer mb |
| 20260507043005 | 9 | 115 | 0.0 | 1.6 | 0.00 | 0.00 | 0.00 | 91 | 1021.1 |
| 20260507042504 | 9 | 115 | 1.6 | 1.6 | 0.00 | 0.00 | 0.00 | 91 | 1021.1 |
| 20260507042003 | 9 | 115 | 0.0 | 1.6 | 0.00 | 0.00 | 0.00 | 91 | 1021.1 |
| 20260507041522 | 9 | 115 | 0.0 | 3.2 | 0.00 | 0.00 | 0.00 | 91 | 1021.0 |
| 20260507041004 | 9 | 115 | 0.0 | 3.2 | 0.00 | 0.00 | 0.00 | 91 | 1021.1 |
| 20260507040505 | 9 | 115 | 0.0 | 1.6 | 0.00 | 0.00 | 0.00 | 90 | 1021.1 |
| 20260507040014 | 10 | 115 | 0.0 | 1.6 | 0.00 | 0.00 | 0.00 | 90 | 1021.1 |
| 20260507035505 | 10 | 115 | 0.0 | 0.0 | 0.00 | 0.00 | 0.00 | 90 | 1021.0 |
| 20260507035007 | 10 | 115 | 0.0 | 0.0 | 0.00 | 0.00 | 0.00 | 90 | 1021.1 |
| 20260507034516 | 10 | 115 | 0.0 | 0.0 | 0.00 | 0.00 | 0.00 | 90 | 1021.1 |
| 20260507034006 | 10 | 115 | 0.0 | 0.0 | 0.00 | 0.00 | 0.00 | 89 | 1021.0 |
| 20260507033509 | 10 | 115 | 0.0 | 0.0 | 0.00 | 0.00 | 0.00 | 90 | 1020.8 |
| 20260507033021 | 10 | 115 | 0.0 | 0.0 | 0.00 | 0.00 | 0.00 | 91 | 1020.7 |
| 20260507032504 | 10 | 115 | 0.0 | 0.0 | 0.00 | 0.00 | 0.00 | 90 | 1020.7 |
| 20260507032003 | 10 | 115 | 0.0 | 0.0 | 0.00 | 0.00 | 0.00 | 90 | 1020.6 |
| 20260507031509 | 10 | 115 | 0.0 | 0.0 | 0.00 | 0.00 | 0.00 | 90 | 1020.5 |
| 20260507031003 | 10 | 115 | 0.0 | 0.0 | 0.00 | 0.00 | 0.00 | 89 | 1020.7 |
| 20260507030507 | 10 | 115 | 0.0 | 0.0 | 0.00 | 0.00 | 0.00 | 90 | 1020.6 |
| 20260507030024 | 10 | 115 | 0.0 | 0.0 | 0.00 | 0.00 | 0.00 | 90 | 1020.6 |
| 20260507025505 | 10 | 115 | 0.0 | 1.6 | 0.00 | 0.00 | 0.00 | 90 | 1020.6 |
| 20260507025006 | 10 | 115 | 0.0 | 1.6 | 0.00 | 0.00 | 0.00 | 90 | 1020.6 |
| 20260507024523 | 10 | 115 | 0.0 | 3.2 | 0.00 | 0.00 | 0.00 | 90 | 1020.6 |
| 20260507024007 | 10 | 115 | 0.0 | 3.2 | 0.00 | 0.00 | 0.00 | 90 | 1020.5 |
| 20260507023506 | 10 | 115 | 0.0 | 3.2 | 0.00 | 0.00 | 0.00 | 90 | 1020.5 |
| 20260507023018 | 10 | 115 | 0.0 | 1.6 | 0.00 | 0.00 | 0.00 | 90 | 1020.4 |
| 20260507022509 | 10 | 115 | 0.0 | 1.6 | 0.00 | 0.00 | 0.00 | 90 | 1020.4 |
| 20260507022008 | 10 | 115 | 0.0 | 3.2 | 0.00 | 0.00 | 0.00 | 90 | 1020.3 |
| 20260507021522 | 10 | 115 | 0.0 | 3.2 | 0.00 | 0.00 | 0.00 | 90 | 1020.3 |
| 20260507021004 | 10 | 115 | 0.0 | 3.2 | 0.00 | 0.00 | 0.00 | 89 | 1020.4 |
| 20260507020504 | 10 | 103 | 0.0 | 3.2 | 0.00 | 0.00 | 0.00 | 89 | 1020.4 |
| 20260507020009 | 10 | 103 | 0.0 | 3.2 | 0.00 | 0.00 | 0.00 | 89 | 1020.5 |
| 20260507015508 | 10 | 103 | 0.0 | 0.0 | 0.00 | 0.00 | 0.00 | 89 | 1020.4 |
| 20260507015009 | 10 | 103 | 0.0 | 0.0 | 0.00 | 0.00 | 0.00 | 88 | 1020.5 |
| 20260507014514 | 10 | 103 | 0.0 | 0.0 | 0.00 | 0.00 | 0.00 | 89 | 1020.4 |
| 20260507014009 | 10 | 103 | 0.0 | 0.0 | 0.00 | 0.00 | 0.00 | 89 | 1020.4 |
| 20260507013507 | 10 | 103 | 0.0 | 0.0 | 0.00 | 0.00 | 0.00 | 88 | 1020.5 |
| 20260507013016 | 10 | 103 | 0.0 | 0.0 | 0.00 | 0.00 | 0.00 | 89 | 1020.6 |
| 20260507012510 | 10 | 103 | 0.0 | 0.0 | 0.00 | 0.00 | 0.00 | 89 | 1020.5 |
| 20260507012009 | 10 | 103 | 0.0 | 1.6 | 0.00 | 0.00 | 0.00 | 89 | 1020.5 |
| 20260507011522 | 10 | 103 | 0.0 | 3.2 | 0.00 | 0.00 | 0.00 | 88 | 1020.5 |
| 20260507011008 | 10 | 103 | 0.0 | 3.2 | 0.00 | 0.00 | 0.00 | 87 | 1020.4 |
| 20260507010509 | 10 | 103 | 0.0 | 3.2 | 0.00 | 0.00 | 0.00 | 88 | 1020.6 |
| 20260507010030 | 10 | 105 | 0.0 | 3.2 | 0.00 | 0.00 | 0.00 | 88 | 1020.6 |
| 20260507005505 | 10 | 105 | 0.0 | 3.2 | 0.00 | 0.00 | 0.00 | 88 | 1020.6 |
| 20260507005006 | 10 | 142 | 0.0 | 0.0 | 0.00 | 0.00 | 0.00 | 87 | 1020.6 |
| 20260507004513 | 10 | 142 | 0.0 | 1.6 | 0.00 | 0.00 | 0.00 | 88 | 1020.6 |
| 20260507004006 | 10 | 144 | 0.0 | 3.2 | 0.00 | 0.00 | 0.00 | 87 | 1020.6 |
| 20260507003506 | 10 | 144 | 0.0 | 3.2 | 0.00 | 0.00 | 0.00 | 88 | 1020.6 |
| 20260507003016 | 10 | 143 | 0.0 | 4.8 | 0.00 | 0.00 | 0.00 | 87 | 1020.7 |
| 20260507002507 | 10 | 143 | 0.0 | 4.8 | 0.00 | 0.00 | 0.00 | 86 | 1020.6 |
| 20260507002016 | 10 | 153 | 0.0 | 3.2 | 0.00 | 0.00 | 0.00 | 87 | 1020.6 |
| 20260507001523 | 10 | 151 | 0.0 | 6.4 | 0.00 | 0.00 | 0.00 | 86 | 1020.7 |
| 20260507001007 | 10 | 146 | 3.2 | 6.4 | 0.00 | 0.00 | 0.00 | 86 | 1020.7 |
| 20260507000508 | 10 | 147 | 1.6 | 3.2 | 0.00 | 0.00 | 0.00 | 88 | 1020.7 |
| 20260507000023 | 10 | 146 | 1.6 | 3.2 | 0.00 | 0.00 | 0.00 | 89 | 1020.7 |
| 20260506235509 | 10 | 134 | 1.6 | 3.2 | 0.00 | 0.00 | 0.00 | 88 | 1020.7 |
| 20260506235011 | 10 | 134 | 0.0 | 0.0 | 0.00 | 0.00 | 0.00 | 89 | 1020.7 |
| 20260506234509 | 10 | 134 | 0.0 | 0.0 | 0.00 | 0.00 | 0.00 | 88 | 1020.8 |
| 20260506234005 | 10 | 134 | 0.0 | 0.0 | 0.00 | 0.00 | 0.00 | 89 | 1020.8 |
| 20260506233507 | 10 | 134 | 0.0 | 0.0 | 0.00 | 0.00 | 0.00 | 88 | 1020.7 |
| 20260506233014 | 10 | 134 | 0.0 | 0.0 | 0.00 | 0.00 | 0.00 | 89 | 1020.7 |
| 20260506232504 | 10 | 134 | 0.0 | 0.0 | 0.00 | 0.00 | 0.00 | 89 | 1020.7 |
| 20260506232008 | 10 | 134 | 0.0 | 0.0 | 0.00 | 0.00 | 0.00 | 89 | 1020.7 |
| 20260506231518 | 10 | 134 | 0.0 | 1.6 | 0.00 | 0.00 | 0.00 | 88 | 1020.8 |
| 20260506231012 | 10 | 134 | 0.0 | 1.6 | 0.00 | 0.00 | 0.00 | 89 | 1020.8 |
| 20260506230507 | 10 | 134 | 0.0 | 1.6 | 0.00 | 0.00 | 0.00 | 90 | 1020.7 |
| 20260506230027 | 10 | 134 | 0.0 | 1.6 | 0.00 | 0.00 | 0.00 | 89 | 1020.7 |
| 20260506225508 | 10 | 134 | 0.0 | 3.2 | 0.00 | 0.00 | 0.00 | 90 | 1020.7 |
| 20260506225008 | 10 | 134 | 1.6 | 3.2 | 0.00 | 0.00 | 0.00 | 90 | 1020.7 |
| 20260506224525 | 10 | 92 | 1.6 | 3.2 | 0.00 | 0.00 | 0.00 | 91 | 1020.8 |
| 20260506224010 | 10 | 114 | 0.0 | 3.2 | 0.00 | 0.00 | 0.00 | 91 | 1020.8 |
| 20260506223510 | 10 | 114 | 0.0 | 3.2 | 0.00 | 0.00 | 0.00 | 89 | 1020.8 |
| 20260506223009 | 10 | 114 | 0.0 | 3.2 | 0.00 | 0.00 | 0.00 | 90 | 1020.9 |
| 20260506222504 | 10 | 114 | 0.0 | 3.2 | 0.00 | 0.00 | 0.00 | 90 | 1020.8 |
| 20260506222005 | 10 | 114 | 0.0 | 3.2 | 0.00 | 0.00 | 0.00 | 90 | 1021.0 |
| 20260506221514 | 10 | 114 | 0.0 | 3.2 | 0.00 | 0.00 | 0.00 | 90 | 1021.0 |
| 20260506221007 | 10 | 114 | 0.0 | 3.2 | 0.00 | 0.00 | 0.00 | 91 | 1021.0 |
| 20260506220507 | 10 | 114 | 0.0 | 3.2 | 0.00 | 0.00 | 0.00 | 91 | 1020.9 |
| 20260506220023 | 10 | 114 | 0.0 | 3.2 | 0.00 | 0.00 | 0.00 | 91 | 1021.0 |
| 20260506215512 | 10 | 114 | 0.0 | 1.6 | 0.00 | 0.00 | 0.00 | 92 | 1021.0 |
| 20260506215008 | 10 | 114 | 0.0 | 0.0 | 0.00 | 0.00 | 0.00 | 92 | 1021.0 |
| 20260506214524 | 10 | 114 | 0.0 | 1.6 | 0.00 | 0.00 | 0.00 | 92 | 1021.0 |
| 20260506214010 | 10 | 114 | 0.0 | 1.6 | 0.00 | 0.00 | 0.00 | 93 | 1020.9 |
| 20260506213511 | 10 | 114 | 0.0 | 0.0 | 0.00 | 0.00 | 0.00 | 93 | 1021.0 |
| 20260506213027 | 10 | 114 | 0.0 | 3.2 | 0.00 | 0.00 | 0.00 | 93 | 1020.9 |
| 20260506212507 | 10 | 114 | 0.0 | 3.2 | 0.00 | 0.00 | 0.00 | 94 | 1021.0 |
| 20260506212007 | 9 | 114 | 0.0 | 3.2 | 0.00 | 0.00 | 0.00 | 94 | 1020.9 |
| 20260506211511 | 9 | 114 | 0.0 | 3.2 | 0.00 | 0.00 | 0.00 | 94 | 1021.0 |
| 20260506211007 | 9 | 114 | 0.0 | 1.6 | 0.00 | 0.00 | 0.00 | 94 | 1021.0 |
| 20260506210507 | 9 | 114 | 0.0 | 1.6 | 0.00 | 0.00 | 0.00 | 94 | 1021.0 |
| 20260506210024 | 9 | 114 | 0.0 | 3.2 | 0.00 | 0.00 | 0.00 | 94 | 1020.9 |
| 20260506205507 | 9 | 114 | 0.0 | 3.2 | 0.00 | 0.00 | 0.00 | 94 | 1020.9 |
| 20260506205011 | 10 | 114 | 0.0 | 3.2 | 0.00 | 0.00 | 0.00 | 94 | 1020.8 |
| 20260506204523 | 9 | 114 | 0.0 | 3.2 | 0.00 | 0.00 | 0.00 | 93 | 1020.8 |
| 20260506204008 | 10 | 114 | 0.0 | 3.2 | 0.00 | 0.00 | 0.00 | 94 | 1020.8 |
| 20260506203508 | 10 | 114 | 0.0 | 3.2 | 0.00 | 0.00 | 0.00 | 94 | 1020.7 |
| 20260506203026 | 10 | 114 | 0.0 | 1.6 | 0.00 | 0.00 | 0.00 | 94 | 1020.8 |
| 20260506202510 | 9 | 114 | 0.0 | 3.2 | 0.00 | 0.00 | 0.00 | 94 | 1020.8 |
| 20260506202012 | 10 | 114 | 0.0 | 3.2 | 0.00 | 0.00 | 0.00 | 94 | 1020.7 |
| 20260506201536 | 10 | 114 | 0.0 | 3.2 | 0.00 | 0.00 | 0.00 | 94 | 1020.7 |
| 20260506201008 | 10 | 114 | 0.0 | 3.2 | 0.00 | 0.00 | 0.00 | 94 | 1020.8 |
| 20260506200505 | 10 | 114 | 0.0 | 3.2 | 0.00 | 0.00 | 0.00 | 94 | 1020.7 |
| 20260506200016 | 10 | 114 | 0.0 | 3.2 | 0.00 | 0.00 | 0.00 | 94 | 1020.6 |
| 20260506195508 | 10 | 113 | 0.0 | 3.2 | 0.00 | 0.00 | 0.00 | 94 | 1020.7 |
| 20260506195008 | 10 | 162 | 0.0 | 3.2 | 0.00 | 0.00 | 0.00 | 95 | 1020.5 |
| 20260506194518 | 10 | 148 | 0.0 | 3.2 | 0.00 | 0.00 | 0.00 | 95 | 1020.4 |
| 20260506194010 | 10 | 148 | 0.0 | 3.2 | 0.00 | 0.00 | 0.00 | 95 | 1020.4 |
| 20260506193508 | 10 | 148 | 0.0 | 3.2 | 0.00 | 0.00 | 0.00 | 95 | 1020.4 |
| 20260506193025 | 10 | 148 | 0.0 | 3.2 | 0.00 | 0.00 | 0.00 | 95 | 1020.4 |
| 20260506192504 | 10 | 148 | 0.0 | 4.8 | 0.00 | 0.00 | 0.00 | 95 | 1020.4 |
| 20260506192003 | 10 | 142 | 1.6 | 4.8 | 0.00 | 0.00 | 0.00 | 95 | 1020.4 |
| 20260506191508 | 10 | 155 | 0.0 | 6.4 | 0.00 | 0.00 | 0.00 | 95 | 1020.4 |
| 20260506191006 | 10 | 144 | 3.2 | 6.4 | 0.00 | 0.00 | 0.00 | 95 | 1020.4 |
| 20260506190505 | 10 | 155 | 1.6 | 8.0 | 0.00 | 0.00 | 0.00 | 96 | 1020.5 |
| 20260506190016 | 10 | 155 | 3.2 | 8.0 | 0.00 | 0.00 | 0.00 | 96 | 1020.5 |
| 20260506185505 | 10 | 151 | 3.2 | 6.4 | 0.00 | 0.00 | 0.00 | 96 | 1020.5 |
| 20260506185006 | 10 | 150 | 3.2 | 6.4 | 0.00 | 0.00 | 0.00 | 96 | 1020.5 |
| 20260506184520 | 10 | 159 | 1.6 | 6.4 | 0.00 | 0.00 | 0.00 | 96 | 1020.4 |
| 20260506184009 | 10 | 155 | 3.2 | 4.8 | 0.00 | 0.00 | 0.00 | 96 | 1020.4 |
| 20260506183503 | 10 | 155 | 1.6 | 3.2 | 0.00 | 0.00 | 0.00 | 96 | 1020.4 |
| 20260506183005 | 10 | 158 | 1.6 | 6.4 | 0.00 | 0.00 | 0.00 | 96 | 1020.4 |
| 20260506182504 | 10 | 159 | 1.6 | 6.4 | 0.00 | 0.00 | 0.00 | 96 | 1020.3 |
| 20260506182004 | 9 | 150 | 3.2 | 11.3 | 0.00 | 0.00 | 0.00 | 96 | 1020.1 |
| 20260506181512 | 9 | 159 | 3.2 | 11.3 | 0.00 | 0.00 | 0.00 | 96 | 1020.1 |
| 20260506181008 | 9 | 157 | 4.8 | 11.3 | 0.00 | 0.00 | 0.00 | 96 | 1020.1 |
| 20260506180506 | 9 | 157 | 3.2 | 8.0 | 0.00 | 0.00 | 0.00 | 96 | 1020.1 |
| 20260506180020 | 9 | 142 | 4.8 | 9.7 | 0.00 | 0.00 | 0.00 | 96 | 1020.1 |
| 20260506175504 | 9 | 157 | 1.6 | 9.7 | 0.00 | 0.00 | 0.00 | 96 | 1020.1 |
| 20260506175005 | 9 | 161 | 3.2 | 8.0 | 0.00 | 0.00 | 0.00 | 96 | 1020.0 |
| 20260506174523 | 9 | 161 | 3.2 | 8.0 | 0.00 | 0.00 | 0.00 | 96 | 1020.1 |
| 20260506174007 | 9 | 151 | 3.2 | 6.4 | 0.00 | 0.00 | 0.00 | 96 | 1020.3 |
| 20260506173510 | 9 | 149 | 1.6 | 6.4 | 0.00 | 0.00 | 0.00 | 96 | 1020.2 |
| 20260506173021 | 9 | 159 | 3.2 | 6.4 | 0.00 | 0.00 | 0.00 | 96 | 1020.1 |
| 20260506172507 | 9 | 161 | 0.0 | 4.8 | 0.00 | 0.00 | 0.00 | 96 | 1020.3 |
| 20260506172004 | 9 | 164 | 3.2 | 4.8 | 0.00 | 0.00 | 0.00 | 96 | 1020.3 |
| 20260506171508 | 9 | 152 | 1.6 | 4.8 | 0.00 | 0.00 | 0.00 | 96 | 1020.3 |
| 20260506171005 | 9 | 147 | 1.6 | 4.8 | 0.00 | 0.00 | 0.00 | 96 | 1020.2 |
| 20260506170503 | 10 | 156 | 1.6 | 6.4 | 0.00 | 0.00 | 0.00 | 96 | 1020.0 |
| 20260506170011 | 9 | 157 | 3.2 | 6.4 | 0.00 | 0.00 | 0.00 | 96 | 1020.0 |
| 20260506165508 | 9 | 155 | 3.2 | 4.8 | 0.00 | 0.00 | 0.00 | 96 | 1020.1 |
| 20260506165004 | 9 | 136 | 1.6 | 8.0 | 0.00 | 0.00 | 0.00 | 96 | 1020.1 |
| 20260506164514 | 9 | 156 | 4.8 | 6.4 | 0.00 | 0.00 | 0.00 | 96 | 1019.9 |
| 20260506164009 | 9 | 157 | 3.2 | 6.4 | 0.00 | 0.00 | 0.00 | 96 | 1019.7 |
| 20260506163509 | 9 | 149 | 3.2 | 8.0 | 0.00 | 0.00 | 0.00 | 96 | 1019.7 |
| 20260506163018 | 9 | 160 | 4.8 | 8.0 | 0.00 | 0.00 | 0.00 | 96 | 1019.6 |
| 20260506162507 | 9 | 153 | 1.6 | 12.9 | 0.00 | 0.00 | 0.00 | 96 | 1019.6 |
| 20260506162009 | 9 | 162 | 1.6 | 12.9 | 0.00 | 0.00 | 0.00 | 96 | 1019.5 |
| 20260506161521 | 9 | 144 | 4.8 | 11.3 | 0.00 | 0.00 | 0.00 | 96 | 1019.5 |
| 20260506161005 | 9 | 148 | 4.8 | 11.3 | 0.00 | 0.00 | 0.00 | 96 | 1019.7 |
| 20260506160505 | 9 | 150 | 1.6 | 9.7 | 0.00 | 0.00 | 0.00 | 96 | 1019.7 |
| 20260506160006 | 9 | 153 | 3.2 | 6.4 | 0.00 | 0.00 | 0.00 | 96 | 1019.8 |
| 20260506155508 | 9 | 158 | 1.6 | 3.2 | 0.00 | 0.00 | 0.00 | 96 | 1019.9 |
| 20260506155004 | 9 | 158 | 1.6 | 3.2 | 0.00 | 0.00 | 0.00 | 96 | 1019.9 |
| 20260506154513 | 9 | 157 | 0.0 | 4.8 | 0.00 | 0.00 | 0.00 | 96 | 1019.9 |
| 20260506154009 | 9 | 150 | 3.2 | 8.0 | 0.00 | 0.00 | 0.00 | 95 | 1019.8 |
| 20260506153508 | 9 | 154 | 1.6 | 8.0 | 0.00 | 0.00 | 0.00 | 95 | 1019.8 |
| 20260506153016 | 9 | 156 | 4.8 | 6.4 | 0.00 | 0.00 | 0.00 | 95 | 1019.7 |
| 20260506152505 | 9 | 154 | 3.2 | 14.5 | 0.00 | 0.00 | 0.00 | 95 | 1019.6 |
| 20260506152011 | 9 | 156 | 1.6 | 14.5 | 0.00 | 0.00 | 0.00 | 95 | 1019.5 |
| 20260506151524 | 9 | 165 | 4.8 | 11.3 | 0.00 | 0.00 | 0.00 | 95 | 1019.5 |
| 20260506151008 | 9 | 159 | 6.4 | 11.3 | 0.00 | 0.00 | 0.00 | 95 | 1019.6 |
| 20260506150510 | 9 | 163 | 6.4 | 11.3 | 0.00 | 0.00 | 0.00 | 95 | 1019.6 |
| 20260506150021 | 9 | 153 | 4.8 | 9.7 | 0.00 | 0.00 | 0.00 | 95 | 1019.6 |
| 20260506145503 | 9 | 146 | 4.8 | 9.7 | 0.00 | 0.00 | 0.00 | 95 | 1019.7 |
| 20260506145004 | 9 | 157 | 4.8 | 6.4 | 0.00 | 0.00 | 0.00 | 95 | 1019.7 |
| 20260506144509 | 9 | 153 | 1.6 | 8.0 | 0.00 | 0.00 | 0.00 | 95 | 1019.7 |
| 20260506144006 | 9 | 164 | 3.2 | 8.0 | 0.00 | 0.00 | 0.00 | 95 | 1019.5 |
| 20260506143505 | 9 | 132 | 3.2 | 9.7 | 0.00 | 0.00 | 0.00 | 95 | 1019.5 |
| 20260506143012 | 9 | 159 | 1.6 | 11.3 | 0.00 | 0.00 | 0.00 | 95 | 1019.3 |
| 20260506142508 | 9 | 169 | 3.2 | 11.3 | 0.00 | 0.00 | 0.00 | 95 | 1019.3 |
| 20260506142014 | 9 | 169 | 6.4 | 11.3 | 0.00 | 0.00 | 0.00 | 95 | 1019.3 |
| 20260506141517 | 9 | 153 | 3.2 | 8.0 | 0.00 | 0.00 | 0.00 | 95 | 1019.3 |
| 20260506141008 | 9 | 159 | 3.2 | 8.0 | 0.00 | 0.00 | 0.00 | 95 | 1019.3 |
| 20260506140510 | 9 | 156 | 3.2 | 6.4 | 0.00 | 0.00 | 0.00 | 95 | 1019.5 |
| 20260506140026 | 9 | 155 | 1.6 | 8.0 | 0.00 | 0.00 | 0.00 | 95 | 1019.4 |
| 20260506135507 | 9 | 154 | 4.8 | 9.7 | 0.00 | 0.00 | 0.00 | 95 | 1019.2 |
| 20260506135009 | 9 | 149 | 4.8 | 9.7 | 0.00 | 0.00 | 0.00 | 95 | 1019.4 |
| 20260506134523 | 9 | 163 | 1.6 | 9.7 | 0.00 | 0.00 | 0.00 | 95 | 1019.4 |
| 20260506134007 | 9 | 153 | 1.6 | 9.7 | 0.00 | 0.00 | 0.00 | 95 | 1019.3 |
| 20260506133503 | 9 | 157 | 1.6 | 8.0 | 0.00 | 0.00 | 0.00 | 95 | 1019.1 |
| 20260506133014 | 9 | 155 | 4.8 | 6.4 | 0.00 | 0.00 | 0.00 | 95 | 1019.1 |
| 20260506132508 | 9 | 150 | 3.2 | 12.9 | 0.00 | 0.00 | 0.00 | 95 | 1019.1 |
| 20260506132008 | 9 | 163 | 4.8 | 12.9 | 0.00 | 0.00 | 0.00 | 95 | 1018.7 |
| 20260506131518 | 9 | 162 | 4.8 | 9.7 | 0.00 | 0.00 | 0.00 | 95 | 1018.7 |
| 20260506131007 | 9 | 163 | 4.8 | 9.7 | 0.00 | 0.00 | 0.00 | 95 | 1018.8 |
| 20260506130506 | 9 | 161 | 4.8 | 9.7 | 0.00 | 0.00 | 0.00 | 95 | 1018.8 |
| 20260506130022 | 9 | 159 | 3.2 | 8.0 | 0.00 | 0.00 | 0.00 | 95 | 1018.9 |
| 20260506125507 | 9 | 153 | 4.8 | 8.0 | 0.00 | 0.00 | 0.00 | 95 | 1018.8 |
| 20260506125012 | 9 | 153 | 3.2 | 11.3 | 0.00 | 0.00 | 0.00 | 95 | 1018.7 |
| 20260506124531 | 9 | 153 | 4.8 | 11.3 | 0.00 | 0.00 | 0.00 | 95 | 1018.7 |
| 20260506124010 | 9 | 150 | 4.8 | 8.0 | 0.00 | 0.00 | 0.00 | 95 | 1018.6 |
| 20260506123508 | 9 | 155 | 3.2 | 8.0 | 0.00 | 0.00 | 0.00 | 95 | 1018.6 |
| 20260506123026 | 9 | 156 | 1.6 | 9.7 | 0.00 | 0.00 | 0.00 | 95 | 1018.6 |
| 20260506122508 | 9 | 155 | 3.2 | 9.7 | 0.00 | 0.00 | 0.00 | 95 | 1018.6 |
| 20260506122009 | 9 | 159 | 3.2 | 8.0 | 0.00 | 0.00 | 0.00 | 95 | 1018.7 |
| 20260506121514 | 9 | 157 | 4.8 | 9.7 | 0.00 | 0.00 | 0.00 | 94 | 1018.7 |
| 20260506121006 | 9 | 151 | 4.8 | 9.7 | 0.00 | 0.00 | 0.00 | 94 | 1018.7 |
| 20260506120507 | 9 | 161 | 1.6 | 11.3 | 0.00 | 0.00 | 0.00 | 94 | 1018.6 |
| 20260506120020 | 9 | 143 | 4.8 | 12.9 | 0.00 | 0.00 | 0.00 | 94 | 1018.5 |
| 20260506115509 | 9 | 157 | 3.2 | 12.9 | 0.00 | 0.00 | 0.00 | 94 | 1018.4 |
| 20260506115011 | 9 | 158 | 4.8 | 9.7 | 0.00 | 0.00 | 0.00 | 94 | 1018.4 |
| 20260506114534 | 9 | 157 | 3.2 | 11.3 | 0.00 | 0.00 | 0.00 | 94 | 1018.4 |
| 20260506114008 | 9 | 161 | 4.8 | 11.3 | 0.00 | 0.00 | 0.00 | 93 | 1018.5 |
| 20260506113509 | 10 | 144 | 3.2 | 9.7 | 0.00 | 0.00 | 0.00 | 93 | 1018.5 |
| 20260506113024 | 10 | 158 | 4.8 | 9.7 | 0.00 | 0.00 | 0.00 | 93 | 1018.4 |
| 20260506112510 | 10 | 161 | 1.6 | 8.0 | 0.00 | 0.00 | 0.00 | 93 | 1018.3 |
| 20260506112011 | 10 | 153 | 1.6 | 8.0 | 0.00 | 0.00 | 0.00 | 93 | 1018.5 |
| 20260506111511 | 10 | 158 | 3.2 | 6.4 | 0.00 | 0.00 | 0.00 | 93 | 1018.4 |
| 20260506111010 | 10 | 153 | 3.2 | 4.8 | 0.00 | 0.00 | 0.00 | 93 | 1018.3 |
| 20260506110505 | 9 | 153 | 1.6 | 3.2 | 0.00 | 0.00 | 0.00 | 93 | 1018.3 |
| 20260506110020 | 9 | 159 | 1.6 | 3.2 | 0.00 | 0.00 | 0.00 | 93 | 1018.3 |
| 20260506105513 | 10 | 159 | 3.2 | 3.2 | 0.00 | 0.00 | 0.00 | 93 | 1018.3 |
| 20260506105006 | 10 | 157 | 0.0 | 3.2 | 0.00 | 0.00 | 0.00 | 92 | 1018.3 |
| 20260506104522 | 10 | 157 | 1.6 | 3.2 | 0.00 | 0.00 | 0.00 | 92 | 1018.2 |
| 20260506104008 | 10 | 151 | 0.0 | 3.2 | 0.00 | 0.00 | 0.00 | 92 | 1018.1 |
| 20260506103514 | 10 | 155 | 0.0 | 1.6 | 0.00 | 0.00 | 0.00 | 92 | 1018.1 |
| 20260506103029 | 10 | 155 | 0.0 | 3.2 | 0.00 | 0.00 | 0.00 | 92 | 1018.1 |
| 20260506102513 | 10 | 155 | 0.0 | 3.2 | 0.00 | 0.00 | 0.00 | 92 | 1018.1 |
| 20260506102010 | 10 | 155 | 1.6 | 3.2 | 0.00 | 0.00 | 0.00 | 91 | 1018.2 |
| 20260506101526 | 10 | 155 | 0.0 | 3.2 | 0.00 | 0.00 | 0.00 | 91 | 1018.0 |
| 20260506101003 | 10 | 155 | 1.6 | 4.8 | 0.00 | 0.00 | 0.00 | 91 | 1018.0 |
| 20260506100503 | 10 | 155 | 1.6 | 4.8 | 0.00 | 0.00 | 0.00 | 91 | 1017.9 |
| 20260506100018 | 10 | 159 | 0.0 | 6.4 | 0.00 | 0.00 | 0.00 | 91 | 1017.9 |
| 20260506095504 | 10 | 157 | 3.2 | 6.4 | 0.00 | 0.00 | 0.00 | 91 | 1017.9 |
| 20260506095006 | 10 | 157 | 3.2 | 6.4 | 0.00 | 0.00 | 0.00 | 91 | 1017.8 |
| 20260506094503 | 10 | 155 | 3.2 | 8.0 | 0.00 | 0.00 | 0.00 | 91 | 1017.8 |
| 20260506094003 | 10 | 154 | 1.6 | 8.0 | 0.00 | 0.00 | 0.00 | 91 | 1017.9 |
| 20260506093503 | 10 | 155 | 3.2 | 8.0 | 0.00 | 0.00 | 0.00 | 91 | 1017.8 |
| 20260506093007 | 10 | 148 | 3.2 | 9.7 | 0.00 | 0.00 | 0.00 | 91 | 1017.7 |
| 20260506092507 | 10 | 159 | 4.8 | 11.3 | 0.00 | 0.00 | 0.00 | 91 | 1017.7 |
| 20260506092006 | 10 | 149 | 3.2 | 11.3 | 0.00 | 0.00 | 0.00 | 90 | 1017.6 |
| 20260506091510 | 10 | 146 | 4.8 | 11.3 | 0.00 | 0.00 | 0.00 | 90 | 1017.6 |
| 20260506091003 | 10 | 160 | 1.6 | 8.0 | 0.00 | 0.00 | 0.00 | 90 | 1017.5 |
| 20260506090504 | 10 | 152 | 3.2 | 8.0 | 0.00 | 0.00 | 0.00 | 90 | 1017.5 |
| 20260506090010 | 10 | 156 | 3.2 | 8.0 | 0.00 | 0.00 | 0.00 | 90 | 1017.5 |
| 20260506085503 | 10 | 155 | 1.6 | 6.4 | 0.00 | 0.00 | 0.00 | 90 | 1017.6 |
| 20260506084004 | 10 | 146 | 3.2 | 4.8 | 0.00 | 0.00 | 0.00 | 89 | 1017.4 |
| 20260506083506 | 10 | 154 | 1.6 | 6.4 | 0.00 | 0.00 | 0.00 | 89 | 1017.4 |
| 20260506083004 | 10 | 159 | 3.2 | 6.4 | 0.00 | 0.00 | 0.00 | 89 | 1017.4 |
| 20260506082503 | 10 | 157 | 3.2 | 6.4 | 0.00 | 0.00 | 0.00 | 89 | 1017.4 |
| 20260506082003 | 10 | 153 | 1.6 | 3.2 | 0.00 | 0.00 | 0.00 | 90 | 1017.5 |
| 20260506081507 | 10 | 153 | 0.0 | 3.2 | 0.00 | 0.00 | 0.00 | 89 | 1017.5 |
| 20260506081007 | 10 | 151 | 0.0 | 4.8 | 0.00 | 0.00 | 0.00 | 90 | 1017.5 |
| 20260506080504 | 10 | 152 | 1.6 | 4.8 | 0.00 | 0.00 | 0.00 | 89 | 1017.5 |
| 20260506072506 | 10 | 146 | 0.0 | 0.0 | 0.00 | 0.00 | 0.00 | 90 | 1017.3 |
| 20260506072010 | 10 | 146 | 0.0 | 1.6 | 0.00 | 0.00 | 0.00 | 91 | 1017.4 |
| 20260506071506 | 10 | 146 | 0.0 | 3.2 | 0.00 | 0.00 | 0.00 | 91 | 1017.4 |
| 20260506071003 | 10 | 146 | 0.0 | 3.2 | 0.00 | 0.00 | 0.00 | 91 | 1017.3 |
| 20260506070505 | 10 | 146 | 0.0 | 3.2 | 0.00 | 0.00 | 0.00 | 90 | 1017.2 |
| 20260506061008 | 11 | 146 | 0.0 | 0.0 | 0.00 | 0.00 | 0.00 | 89 | 1016.8 |
| 20260506060504 | 11 | 146 | 0.0 | 0.0 | 0.00 | 0.00 | 0.00 | 89 | 1016.7 |
| 20260506050506 | 11 | 146 | 0.0 | 0.0 | 0.00 | 0.00 | 0.00 | 87 | 1016.4 |
| 20260506045003 | 11 | 146 | 0.0 | 0.0 | 0.00 | 0.00 | 0.00 | 87 | 1016.5 |
| 20260506044511 | 11 | 146 | 0.0 | 0.0 | 0.00 | 0.00 | 0.00 | 87 | 1016.5 |
| 20260506044003 | 11 | 146 | 0.0 | 0.0 | 0.00 | 0.00 | 0.00 | 87 | 1016.4 |
| 20260506043503 | 12 | 146 | 0.0 | 0.0 | 0.00 | 0.00 | 0.00 | 87 | 1016.4 |